This demonstration page uses our WeatherBlox Daily Observations layout. Learn more.

Left ArrowRight Arrow

34.16533, -84.80231

Hourly Observations for June 24, 2022

Temp ( °F °C ) Dew Point ( °F °C ) Humidity (%) Winds ( mph kmh ) Pressure ( in mb ) Visibility ( mi km ) Precip ( " mm )
12:15 am 00:15 Clear 77 25 61 16 57 57 Calm 29.90 1013 10 16 0.00 0.00
12:35 am 00:35 Clear 77 25 61 16 57 57 Calm 29.90 1013 10 16 0.00 0.00
12:55 am 00:55 Clear 77 25 61 16 57 57 Calm 29.90 1013 10 16 0.00 0.00
1:15 am 01:15 Clear 77 25 59 15 54 54 Calm 29.90 1013 10 16 0.00 0.00
1:35 am 01:35 Clear 75 24 59 15 57 57 Calm 29.90 1013 10 16 0.00 0.00
1:55 am 01:55 Clear 75 24 59 15 57 57 Calm 29.89 1012 10 16 0.00 0.00
2:15 am 02:15 Clear 77 25 57 14 51 51 Calm 29.89 1012 10 16 0.00 0.00
2:35 am 02:35 Clear 75 24 59 15 57 57 Calm 29.89 1012 10 16 0.00 0.00
2:55 am 02:55 Clear 73 23 59 15 61 61 Calm 29.88 1012 10 16 0.00 0.00
3:15 am 03:15 Partly Cloudy 73 23 59 15 61 61 Calm 29.88 1012 10 16 0.00 0.00
3:35 am 03:35 Mostly Cloudy 73 23 59 15 61 61 Calm 29.88 1012 10 16 0.00 0.00
3:55 am 03:55 Mostly Cloudy 73 23 59 15 61 61 Calm 29.88 1012 10 16 0.00 0.00
4:15 am 04:15 Mostly Cloudy 73 23 59 15 61 61 Calm 29.87 1012 10 16 0.00 0.00
4:35 am 04:35 Mostly Cloudy 72 22 59 15 65 65 Calm 29.89 1012 10 16 0.00 0.00
4:55 am 04:55 Mostly Cloudy 72 22 61 16 69 69 Calm 29.89 1012 10 16 0.00 0.00
5:15 am 05:15 Mostly Cloudy 72 22 61 16 69 69 Calm 29.89 1012 10 16 0.00 0.00
5:35 am 05:35 Mostly Cloudy 70 21 61 16 73 73 Calm 29.90 1013 10 16 0.00 0.00
5:55 am 05:55 Mostly Cloudy 70 21 61 16 73 73 Calm 29.90 1013 10 16 0.00 0.00
6:15 am 06:15 Mostly Clear 70 21 61 16 73 73 Calm 29.91 1013 10 16 0.00 0.00
6:35 am 06:35 Sunny 70 21 61 16 73 73 Calm 29.92 1013 10 16 0.00 0.00
6:55 am 06:55 Sunny 68 20 61 16 78 78 Calm 29.93 1014 10 16 0.00 0.00
7:15 am 07:15 Sunny 68 20 63 17 83 83 Calm 29.93 1014 10 16 0.00 0.00
7:35 am 07:35 Sunny 70 21 63 17 78 78 Calm 29.94 1014 10 16 0.00 0.00
7:55 am 07:55 Sunny 73 23 64 18 74 74 Calm 29.93 1014 10 16 0.00 0.00
8:15 am 08:15 Sunny 75 24 66 19 74 74 Calm 29.94 1014 10 16 0.00 0.00
8:35 am 08:35 Sunny 79 26 70 21 74 74 E 9 15 29.95 1014 10 16 0.00 0.00
8:55 am 08:55 Sunny 79 26 70 21 74 74 E 8 13 29.95 1014 10 16 0.00 0.00
9:15 am 09:15 Sunny 81 27 70 21 70 70 E 9 15 29.95 1014 10 16 0.00 0.00
9:35 am 09:35 Sunny 82 28 72 22 70 70 E 9 15 29.95 1014 10 16 0.00 0.00
9:55 am 09:55 Partly Cloudy 82 28 72 22 70 70 E 8 13 29.95 1014 9 14 0.00 0.00
10:15 am 10:15 Mostly Sunny 82 28 72 22 70 70 E 9 15 29.96 1015 10 16 0.00 0.00
10:35 am 10:35 Partly Cloudy 86 30 72 22 62 62 VRB 7 11 29.96 1014 10 16 0.00 0.00
10:55 am 10:55 Partly Cloudy 86 30 72 22 62 62 VRB 7 11 29.96 1014 10 16 0.00 0.00
11:15 am 11:15 Mostly Cloudy 86 30 72 22 62 62 SSE 8 13 29.96 1014 10 16 0.00 0.00
11:35 am 11:35 Mostly Sunny 88 31 70 21 55 55 SSE 9 15 29.95 1014 10 16 0.00 0.00
11:55 am 11:55 Partly Cloudy 90 32 70 21 52 52 VRB 5 7 29.95 1014 10 16 0.00 0.00
12:15 pm 12:15 Cloudy 90 32 70 21 52 52 ESE 8 13 29.95 1014 10 16 0.00 0.00
12:35 pm 12:35 Cloudy with Light Rain 90 32 70 21 52 52 ESE 8 13 29.95 1014 7 11 0.00 0.00
12:55 pm 12:55 Mostly Cloudy 91 33 70 21 49 49 SSE 7 11 29.95 1014 10 16 0.00 0.00
1:15 pm 13:15 Mostly Cloudy 90 32 70 21 52 52 VRB 7 11 29.94 1014 10 16 0.00 0.00
1:35 pm 13:35 Mostly Cloudy 90 32 70 21 52 52 SSE 8 13 29.94 1014 10 16 0.00 0.00
1:55 pm 13:55 Cloudy 90 32 70 21 52 52 VRB 7 11 29.94 1014 10 16 0.00 0.00
2:15 pm 14:15 Mostly Sunny 93 34 70 21 47 47 E 8 13 29.94 1014 10 16 0.00 0.00
2:35 pm 14:35 Mostly Sunny 93 34 70 21 47 47 ESE 8 13 29.93 1013 10 16 0.00 0.00
2:55 pm 14:55 Mostly Cloudy 91 33 70 21 49 49 E 9 15 29.92 1013 10 16 0.00 0.00
3:15 pm 15:15 Partly Cloudy 90 32 70 21 52 52 E 9 15 29.92 1013 10 16 0.00 0.00
3:35 pm 15:35 Mostly Sunny 91 33 70 21 49 49 ESE 9 15 29.91 1013 10 16 0.00 0.00
3:55 pm 15:55 Sunny 91 33 70 21 49 49 E 12 19 29.91 1013 10 16 0.00 0.00
4:15 pm 16:15 Sunny 91 33 70 21 49 49 E 9 15 29.90 1013 10 16 0.00 0.00
4:35 pm 16:35 Sunny 91 33 70 21 49 49 ESE 10 17 29.90 1013 10 16 0.00 0.00
4:55 pm 16:55 Sunny 93 34 70 21 47 47 E 9 15 29.90 1012 10 16 0.00 0.00
5:15 pm 17:15 Sunny 93 34 70 21 47 47 E 9 15 29.89 1012 10 16 0.00 0.00
5:35 pm 17:35 Sunny 93 34 70 21 47 47 VRB 7 11 29.89 1012 10 16 0.00 0.00
5:55 pm 17:55 Partly Cloudy with Nearby Thunderstorms 91 33 70 21 49 49 E 8 13 29.89 1012 10 16 0.00 0.00
6:15 pm 18:15 Partly Cloudy with Nearby Thunderstorms 91 33 70 21 49 49 VRB 7 11 29.89 1012 10 16 0.00 0.00
6:35 pm 18:35 Partly Cloudy 90 32 70 21 52 52 VRB 7 11 29.89 1012 10 16 0.00 0.00
6:55 pm 18:55 Mostly Cloudy with Thunderstorms 88 31 70 21 55 55 NE 7 11 29.89 1012 10 16 0.00 0.00
7:15 pm 19:15 Cloudy with Thunderstorms 79 26 75 24 89 89 W 12 19 29.94 1014 8 13 0.00 0.00
7:35 pm 19:35 Mostly Cloudy 79 26 75 24 89 89 Calm 29.94 1014 9 14 0.00 0.00
7:55 pm 19:55 Partly Cloudy 79 26 73 23 84 84 Calm 29.93 1013 10 16 0.00 0.00
8:15 pm 20:15 Cloudy with Nearby Thunderstorms 81 27 75 24 84 84 Calm 29.93 1014 10 16 0.00 0.00
8:35 pm 20:35 Cloudy 79 26 75 24 89 89 Calm 29.95 1014 10 16 0.00 0.00
8:55 pm 20:55 Mostly Cloudy 79 26 75 24 89 89 Calm 29.95 1014 10 16 0.00 0.00
9:15 pm 21:15 Mostly Cloudy 79 26 75 24 89 89 Calm 29.96 1014 10 16 0.00 0.00
9:35 pm 21:35 Cloudy 77 25 73 23 89 89 Calm 29.96 1015 10 16 0.00 0.00
9:55 pm 21:55 Mostly Cloudy 79 26 75 24 89 89 Calm 29.96 1014 10 16 0.00 0.00
10:15 pm 22:15 Partly Cloudy 77 25 75 24 94 94 Calm 29.97 1015 10 16 0.00 0.00
10:35 pm 22:35 Partly Cloudy 77 25 75 24 94 94 Calm 29.98 1015 10 16 0.00 0.00
10:55 pm 22:55 Mostly Cloudy 77 25 75 24 94 94 Calm 29.98 1015 10 16 0.00 0.00
11:15 pm 23:15 Cloudy 79 26 73 23 84 84 S 7 11 29.99 1015 10 16 0.00 0.00
11:35 pm 23:35 Mostly Cloudy 77 25 73 23 89 89 S 13 20 29.99 1016 10 16 0.00 0.00
11:55 pm 23:55 Cloudy 77 25 73 23 89 89 S 9 15 30.01 1016 10 16 0.00 0.00

Powered by AerisWeather